Temp
9 9 9 9 9 9 9 9 9 9 9 9 9 9 9 9 9 9 10 9 10 10 10 10 10 11 13 10 10 11 13 14 15 16 15 15 15 14 14 14 14 14 14 13 13 13 13
9 9 9 9 9 9 9 9 9 9 9 9 9 9 9 9 10 10 10 10 10 10 9 9 11 12 12 10 11 11 13 15 16 16 14 15 15 13 13 13 14 13 13 13 13 13 12
9 9 9 9 9 9 9 9 9 9 9 9 9 10 9 9 9 10 10 10 9 9 9 11 12 12 10 10 12 13 14 15 16 16 14 14 15 14 13 13 12 13 14 14 12 13 13
9 9 9 9 8 9 9 9 9 9 9 9 10 10 11 9 9 9 9 9 9 8 10 11 12 13 10 12 12 14 14 15 16 16 16 15 16 11 12 11 12 13 13 15 14 13 13
9 9 8 8 8 8 8 8 8 8 10 11 10 10 11 11 10 9 10 9 9 9 10 12 12 11 11 13 12 13 14 14 16 16 15 16 13 11 11 12 12 11 13 15 15 13 13
9 9 8 8 8 8 8 8 8 8 10 12 11 10 11 11 11 11 10 11 11 11 11 11 10 11 12 10 11 13 14 15 14 14 14 12 10 10 9 11 14 14 13 13 14 13 13
9 9 9 8 8 8 8 8 8 8 8 11 12 12 11 11 12 12 11 11 10 9 10 9 9 10 10 11 12 13 13 14 13 10 11 10 10 8 10 11 12 12 13 13 13 12 12
9 9 9 8 8 8 8 8 8 8 8 11 11 11 12 12 12 12 12 7 7 9 9 9 9 9 10 10 12 11 14 12 11 11 11 10 10 11 11 11 11 12 13 13 12 12 12
9 9 9 8 8 8 8 8 8 8 8 11 11 11 12 13 13 13 10 8 9 9 9 11 10 10 10 11 11 11 12 11 10 9 9 10 11 11 12 11 12 11 12 12 13 11 10
9 9 9 9 9 8 9 9 8 9 10 11 11 11 12 12 13 10 10 10 10 10 7 9 11 11 12 11 12 12 12 11 10 10 9 10 11 12 11 11 12 13 11 12 12 11 12
9 9 9 9 9 9 9 9 10 9 10 12 11 11 11 12 11 9 10 10 10 10 8 11 10 13 11 11 12 12 12 11 10 10 11 11 11 11 12 12 12 12 11 11 11 10 8
9 9 9 9 9 9 9 9 8 11 11 13 12 11 11 11 11 10 9 8 10 7 7 8 10 10 12 10 11 11 11 10 10 10 9 10 11 11 11 11 11 11 11 9 8 9 9
9 9 9 9 9 9 10 10 10 11 12 13 13 12 11 10 9 9 9 8 8 6 8 9 10 10 10 10 11 10 10 9 10 10 10 10 10 11 11 11 11 11 10 9 10 8 12
9 9 9 9 9 10 10 10 10 11 11 13 12 12 11 10 9 8 9 7 7 7 8 9 10 11 10 10 10 10 11 10 10 9 8 8 9 11 11 12 12 11 11 8 12 11 9
9 9 9 9 9 9 10 10 11 11 11 12 12 11 11 9 9 9 6 4 6 8 10 10 11 10 10 11 11 10 9 10 10 10 11 10 10 11 11 11 11 11 10 9 6 6 9
9 9 9 9 9 10 10 11 11 11 12 12 12 11 10 9 9 9 5 7 9 9 10 11 11 11 11 10 11 10 10 11 11 10 10 10 10 10 11 11 10 10 9 10 8 10 11
9 9 10 10 9 9 10 11 11 12 12 12 11 9 10 9 9 6 5 7 9 10 10 11 10 11 11 11 11 10 11 11 11 11 10 10 8 9 10 9 9 10 9 9 9 9 11
10 10 10 10 9 9 10 10 11 12 12 12 9 10 10 10 7 4 5 9 11 10 10 10 11 11 10 10 11 10 11 11 10 11 11 10 8 8 9 10 9 9 9 9 10 10 10
10 10 10 10 10 9 10 10 11 11 11 10 7 7 11 10 7 6 9 10 10 10 11 10 11 11 11 11 12 11 11 11 10 10 10 10 8 8 10 10 9 9 9 9 8 8 9
9 9 10 10 10 10 10 10 11 11 12 11 7 8 6 4 4 8 10 10 10 10 11 10 11 11 11 11 11 12 11 11 10 11 12 10 8 9 9 11 10 9 9 8 10 9 10
9 9 9 9 10 10 10 10 11 11 12 12 4 7 6 6 8 8 9 10 10 10 10 10 11 10 11 10 10 10 10 10 10 11 9 9 8 5 7 7 8 9 10 8 9 11 11
9 9 9 9 10 10 10 10 11 11 12 11 8 8 6 6 7 10 9 9 10 11 10 10 10 11 9 10 10 10 10 10 10 8 8 7 9 7 7 8 7 7 8 8 9 10 10
9 9 9 9 10 10 10 10 10 11 12 9 6 7 7 7 8 9 10 10 11 11 11 10 10 10 9 9 9 10 9 9 10 8 8 7 7 7 7 7 7 9 8 9 9 8 10
10 10 9 9 10 10 10 9 9 10 10 10 8 7 7 8 7 9 10 10 11 10 11 11 9 10 11 9 9 9 8 8 7 7 7 6 7 7 7 7 9 12 9 9 9 9 10
10 10 9 9 9 10 10 9 9 9 9 9 9 8 7 8 7 9 9 9 9 10 10 10 10 9 8 10 10 9 8 9 7 5 6 6 7 9 7 7 8 13 11 9 9 11 9
9 9 9 9 9 9 9 9 9 9 9 9 9 9 8 8 8 9 9 10 9 9 9 10 9 8 8 8 9 10 11 11 10 6 4 6 6 10 6 7 9 12 11 9 9 11 12
8 8 8 9 9 9 9 9 9 9 8 8 8 8 8 8 8 8 9 10 8 8 9 9 9 9 8 7 9 9 9 8 10 8 7 8 8 9 10 9 8 9 9 10 13 15 12
7 8 8 8 8 8 8 8 8 8 8 8 8 8 8 7 7 7 9 9 8 9 10 9 9 7 7 8 8 8 7 8 8 7 7 8 8 8 10 9 8 8 9 11 12 11 12
7 7 7 8 8 8 8 8 8 8 8 8 8 7 6 6 7 8 9 10 11 11 10 8 9 8 9 8 7 7 7 6 7 9 6 7 9 7 9 10 10 7 9 9 8 8 9
Height
832 827 823 819 815 810 806 802 797 794 789 783 776 769 762 754 751 751 754 757 759 761 763 765 769 769 772 782 789 785 782 781 783 783 787 788 791 798 807 810 813 819 825 826 828 827 829
834 830 825 821 817 813 808 804 799 797 793 788 781 776 770 762 754 755 757 761 765 767 768 770 772 775 776 789 791 786 783 784 784 785 789 789 793 797 808 816 817 824 826 828 830 830 831
835 831 827 822 819 815 812 807 802 800 796 792 787 782 779 771 761 755 762 768 772 774 773 776 777 776 773 796 792 787 786 786 786 787 791 793 794 798 809 818 824 825 828 829 834 833 833
836 833 829 824 821 817 814 810 805 802 799 795 792 788 785 783 779 775 775 775 778 780 780 781 780 779 795 797 794 791 790 789 789 790 794 797 797 804 814 822 827 830 836 833 836 835 834
838 835 831 826 823 819 815 812 808 804 801 797 795 792 789 788 787 785 784 782 784 787 790 788 785 786 802 798 796 794 793 793 793 795 797 799 800 817 821 827 837 843 844 836 836 838 837
841 836 833 829 824 821 817 813 811 807 803 800 797 795 792 790 790 789 790 790 789 789 790 791 793 797 802 805 801 798 797 795 796 797 801 807 818 828 837 834 842 839 843 841 838 841 839
843 839 834 830 826 822 819 814 811 808 805 802 800 798 796 793 792 792 792 793 798 802 801 804 810 807 808 805 803 801 800 798 801 809 821 825 833 853 844 838 838 840 839 840 840 842 842
844 840 836 832 828 824 820 816 812 810 806 803 801 800 798 797 796 795 794 797 805 807 812 810 811 811 808 807 807 805 802 808 813 824 824 835 846 842 841 839 840 838 841 845 845 843 845
845 841 837 833 830 825 821 818 814 810 808 804 802 801 800 798 797 799 800 803 804 805 810 812 813 813 813 811 816 814 810 817 825 833 836 839 842 839 837 841 840 848 846 848 847 848 851
847 843 839 835 831 826 822 818 815 811 807 805 803 801 801 801 801 800 801 804 805 804 829 827 817 816 815 813 817 815 815 819 827 837 840 845 840 838 841 843 843 840 849 847 849 853 850
849 846 841 837 833 828 823 820 815 812 808 805 803 803 802 800 802 804 806 803 804 805 848 833 826 817 818 819 822 819 818 818 831 836 837 846 842 841 842 844 843 846 848 851 853 860 872
852 848 843 838 834 829 825 820 816 811 807 805 804 803 802 803 803 805 806 805 806 830 862 846 830 830 822 825 826 825 822 822 832 838 843 847 844 844 845 846 846 849 852 862 867 866 870
854 850 846 840 835 831 826 821 816 811 808 805 805 803 802 802 805 805 806 808 827 857 850 847 839 836 835 837 831 832 834 839 840 852 850 849 848 846 844 846 847 850 856 874 865 879 850
855 851 847 843 837 831 827 822 817 812 807 804 804 804 803 802 803 804 805 816 846 856 848 842 838 834 838 840 838 839 837 843 842 846 860 862 865 846 846 845 846 851 854 877 860 865 872
856 853 849 844 839 833 828 823 818 812 807 803 803 803 803 803 803 803 809 849 855 848 838 837 835 839 842 839 839 843 848 847 844 844 847 849 851 847 847 846 847 853 859 863 890 894 871
857 854 850 846 841 835 829 824 818 812 807 803 802 803 804 803 802 802 818 841 839 839 835 834 834 838 840 843 841 842 846 843 842 844 846 849 856 852 848 848 853 852 858 864 876 868 857
858 855 852 848 843 837 831 825 819 812 806 803 803 806 804 803 802 808 843 844 836 833 834 833 838 838 840 839 841 844 842 840 840 843 845 850 864 861 852 855 854 853 858 863 866 868 852
858 855 852 849 844 839 833 827 821 814 807 803 803 812 805 803 816 834 846 831 829 832 831 832 834 834 840 841 841 843 842 840 840 841 844 847 859 868 855 850 852 853 855 857 853 859 852
857 855 852 848 845 841 835 830 824 817 810 807 813 814 806 804 831 839 832 830 829 831 832 835 833 833 834 837 836 840 840 838 841 841 845 848 861 870 852 851 852 852 852 853 856 859 855
857 854 851 848 845 842 836 832 827 820 814 811 816 826 817 816 830 829 831 831 831 831 831 832 831 832 833 835 839 837 837 838 840 840 839 843 858 851 857 838 846 850 847 850 845 851 838
854 853 850 848 845 841 837 833 829 823 817 816 823 835 837 841 831 831 830 832 832 833 833 833 834 834 835 840 839 841 838 840 842 839 844 847 854 867 856 851 849 840 834 842 840 823 823
850 849 848 847 844 841 838 835 830 826 821 820 830 834 836 839 836 828 833 834 829 829 834 833 834 830 837 835 836 838 838 840 838 845 846 852 847 856 853 841 843 838 830 828 823 821 813
846 844 844 844 842 840 838 835 832 829 826 825 829 832 833 839 837 833 831 829 828 828 828 828 831 833 837 834 831 828 829 830 831 840 847 851 853 859 849 843 840 823 808 807 809 809 801
841 840 838 839 840 838 837 835 834 831 830 830 830 829 833 837 840 835 830 831 827 828 828 827 831 830 827 826 828 830 833 834 837 837 838 851 852 855 851 848 834 784 792 790 790 788 787
838 836 835 835 837 836 835 834 833 832 832 832 831 831 832 836 839 833 830 831 829 827 828 825 824 826 826 827 831 832 835 829 837 843 842 843 845 842 850 852 823 776 785 791 788 773 772
836 833 830 832 835 834 832 832 832 831 831 832 831 831 831 834 834 828 830 828 830 829 829 825 826 826 825 832 831 830 826 821 825 840 848 844 842 833 857 851 826 778 779 785 787 777 758
833 830 828 825 831 833 831 830 830 830 830 831 830 831 831 833 827 827 828 826 829 830 829 827 825 827 828 836 834 833 828 828 823 831 836 838 838 831 826 833 811 783 779 779 780 766 756
831 829 827 822 825 828 831 828 827 828 828 830 829 829 830 830 825 823 823 824 825 826 825 826 827 829 834 834 833 829 834 826 825 825 829 826 829 828 824 826 818 775 780 775 761 757 755
827 828 824 825 823 823 825 828 826 824 825 826 827 827 827 828 823 818 815 816 817 818 822 824 822 824 823 827 830 827 828 830 821 815 823 821 802 814 807 792 772 774 764 756 757 758 754
Wind_Speed
20 21 21 21 22 24 24 22 24 27 32 35 32 35 36 24 22 11 15 17 20 20 18 24 27 23 18 8 4 12 6 5 9 8 3 3 6 4 5 5 3 5 3 5 3 6 5
20 21 21 22 22 23 24 21 22 25 30 34 31 32 40 33 19 12 14 18 20 24 26 26 25 23 17 12 12 12 5 9 9 8 5 6 5 4 7 4 5 2 5 4 6 4 4
20 21 21 21 21 21 22 22 21 23 27 30 28 29 34 41 46 35 29 29 30 29 26 27 24 25 23 2 8 12 11 10 11 12 5 6 6 6 4 6 3 3 5 3 7 5 3
20 20 20 21 21 21 20 20 21 22 24 26 27 23 26 29 33 31 35 39 35 32 32 30 18 24 7 10 10 15 17 21 21 23 21 14 17 9 4 4 5 5 4 3 4 6 3
21 21 21 21 21 21 20 20 21 23 24 25 25 27 20 20 23 28 29 32 34 30 27 18 19 11 3 9 7 15 12 8 19 17 12 10 8 5 5 5 5 6 3 1 1 3 3
22 23 22 22 22 21 21 22 21 22 22 22 22 23 28 12 12 18 24 28 22 25 19 19 15 5 7 4 6 9 10 9 11 4 6 9 6 4 4 4 4 4 5 1 0 4 3
21 22 23 23 23 23 21 22 22 21 21 18 17 16 24 23 12 13 16 7 5 6 13 7 2 3 3 6 8 14 8 5 6 9 5 5 9 3 2 3 3 5 4 3 2 2 4
21 20 22 23 23 24 23 22 22 22 21 18 16 12 11 20 17 10 9 7 3 2 7 7 4 1 2 4 7 13 10 6 6 5 2 7 5 1 1 6 6 5 4 2 3 2 3
25 21 22 22 23 24 24 24 22 22 20 17 16 11 7 9 14 17 18 8 6 5 6 6 2 4 4 7 4 8 6 3 6 7 6 6 2 1 3 5 5 4 5 1 0 5 1
24 23 24 24 23 24 24 25 24 23 20 15 14 11 9 6 4 4 4 5 2 4 5 12 9 6 5 3 6 4 5 4 6 5 4 6 2 3 4 4 1 3 1 2 2 3 3
23 26 25 27 26 26 27 25 26 24 21 11 10 10 9 4 10 3 2 2 2 1 6 6 9 7 6 6 1 8 7 7 5 4 2 1 2 3 5 2 1 3 2 2 2 3 3
21 23 26 28 28 29 29 29 27 24 19 9 7 9 5 4 7 4 3 3 2 6 1 6 4 7 5 7 5 5 5 8 4 6 7 2 1 3 2 2 3 4 3 5 3 2 2
20 23 25 28 29 30 31 32 29 25 22 10 4 7 8 5 3 3 3 2 5 7 3 6 3 5 2 6 6 6 5 5 3 5 4 5 3 2 1 3 1 3 4 3 5 3 4
20 22 25 27 29 30 32 32 31 28 26 9 2 4 7 7 4 2 2 5 9 4 3 3 2 2 5 7 5 6 2 3 4 4 3 4 4 1 1 1 4 2 3 4 5 2 4
19 21 24 27 28 30 31 33 32 31 30 7 2 1 3 6 3 2 5 7 6 5 3 5 2 5 4 2 3 5 5 2 2 2 3 3 2 1 1 1 1 2 1 3 6 1 3
18 20 23 26 28 29 31 33 34 33 32 9 0 1 4 6 3 2 6 4 2 2 2 2 3 1 2 2 3 3 2 1 2 2 2 1 2 2 1 2 4 1 4 3 2 1 4
17 19 21 24 27 29 30 32 34 36 32 11 1 3 5 6 2 5 4 2 2 1 2 3 3 2 1 1 2 2 2 2 3 3 4 3 4 3 2 4 6 3 1 2 2 3 2
17 19 21 23 24 28 28 30 33 35 32 10 2 3 5 3 4 2 2 4 2 2 1 3 2 1 4 2 2 1 2 4 5 4 3 1 3 3 8 1 2 3 5 5 3 4 3
15 16 18 20 22 25 26 28 29 33 28 7 2 2 4 2 4 2 1 3 1 3 2 2 2 3 1 2 1 2 2 2 5 4 5 4 0 3 4 3 3 3 4 4 2 2 7
14 15 16 17 19 22 25 25 26 29 24 6 2 4 4 4 1 6 4 1 3 0 2 3 2 2 2 3 2 2 2 1 4 4 4 4 3 6 5 4 3 4 5 7 6 4 4
13 15 16 16 16 18 22 22 22 26 20 5 4 0 3 3 4 3 2 4 2 2 1 3 2 4 4 4 4 4 4 2 1 4 3 5 4 4 6 9 6 13 14 10 16 18 10
14 14 14 14 15 16 19 19 19 22 16 7 2 2 2 1 3 1 3 4 5 2 5 3 3 2 5 5 7 7 5 4 5 1 5 1 3 3 5 5 6 9 16 18 21 20 20
16 15 13 13 13 13 14 15 16 17 12 5 3 2 3 2 2 1 1 2 2 1 3 3 5 3 3 10 7 6 5 3 4 8 7 5 4 1 5 3 8 9 8 14 8 6 19
15 14 12 10 10 11 11 10 11 13 13 4 2 3 3 2 1 2 2 1 2 3 2 0 4 4 1 3 2 1 1 3 5 6 4 6 4 2 4 6 3 5 4 8 13 9 18
14 13 11 8 8 9 9 7 7 8 7 5 2 1 2 1 2 4 2 3 4 3 3 3 4 3 0 3 2 5 3 3 0 2 4 2 4 2 2 2 9 5 1 4 6 6 14
13 12 9 7 9 9 7 7 5 5 4 3 2 1 2 3 4 2 1 2 2 1 3 2 1 1 3 2 2 3 4 3 2 0 5 3 2 6 2 2 6 4 1 3 1 5 4
11 10 8 5 9 9 8 6 6 5 4 3 3 3 2 1 3 4 3 2 2 1 2 2 0 1 2 2 3 4 4 3 4 5 5 4 3 12 10 6 9 9 7 2 2 4 2
8 7 8 4 6 7 8 6 5 6 5 5 3 5 4 3 4 6 3 4 2 2 2 1 1 0 2 3 3 4 4 4 2 4 6 8 7 5 6 5 11 7 5 7 4 2 2
6 6 3 3 3 4 4 6 6 5 6 7 4 5 9 4 4 8 15 16 14 8 3 2 1 3 3 1 2 1 3 2 4 3 0 3 7 5 10 8 4 6 5 6 4 6 6
Wind_Direction
15 12 13 13 12 12 15 13 14 16 14 21 25 27 32 71 26 76 115 122 119 119 117 123 122 128 114 51 329 334 13 88 113 108 79 102 78 109 89 95 69 76 118 59 86 65 58
14 13 12 12 12 12 18 15 19 21 18 26 29 39 36 37 53 85 126 127 119 114 113 113 108 121 93 75 321 352 50 104 113 105 72 36 125 111 89 63 62 72 95 99 46 32 46
14 12 11 11 11 10 16 18 19 24 20 25 30 34 33 40 70 99 104 110 104 103 107 116 94 94 64 0 6 41 84 104 105 109 84 68 108 71 135 94 149 92 74 70 23 3 31
15 11 8 7 9 8 8 15 14 14 14 19 32 37 30 51 61 77 98 100 98 100 109 110 89 77 90 348 38 55 91 90 92 96 94 83 88 96 61 124 36 59 48 84 353 355 10
15 11 8 5 5 7 3 2 3 3 9 15 31 46 50 57 67 79 102 103 102 94 99 87 65 55 39 338 24 29 50 74 90 86 75 72 66 75 28 78 47 14 137 109 87 25 351
10 14 9 5 1 2 3 360 4 6 12 26 34 46 60 60 67 85 93 98 94 89 75 55 40 41 356 320 337 357 49 64 66 52 34 38 53 69 33 62 176 168 121 67 218 340 358
13 7 9 7 5 1 3 1 360 3 7 24 34 48 60 66 95 112 122 118 37 33 51 73 143 87 334 316 41 26 17 32 35 50 52 19 70 85 53 24 115 119 98 105 324 6 328
12 12 9 9 7 4 3 4 1 2 5 23 31 43 61 71 87 119 95 78 40 113 76 76 107 79 327 336 44 356 24 66 49 72 22 38 71 265 251 74 82 68 91 32 299 356 353
15 13 11 9 9 6 5 4 3 2 4 20 28 45 70 80 100 75 74 72 31 7 86 20 88 45 333 19 57 345 29 79 76 55 37 98 174 320 101 56 80 43 110 119 236 324 55
17 15 14 8 9 6 5 5 4 3 2 12 26 42 56 131 60 78 89 98 48 18 77 342 350 20 1 343 51 360 24 116 43 117 89 84 326 109 82 76 78 104 168 104 50 39 264
15 9 12 11 9 9 5 1 2 360 355 1 24 34 58 115 128 98 140 88 80 77 70 307 315 311 346 67 294 356 14 35 80 79 102 255 56 74 72 81 13 126 73 71 73 81 20
12 11 10 6 6 11 12 4 357 1 3 -0 15 32 47 95 89 106 150 146 93 45 15 337 320 356 10 17 22 312 36 46 139 70 36 78 353 50 96 70 63 129 78 46 55 56 358
9 9 10 6 4 6 12 10 8 9 1 6 25 26 45 57 101 130 155 101 44 79 308 310 356 5 53 6 20 27 22 26 87 87 17 10 353 326 104 88 62 85 61 342 352 12 234
8 7 6 4 3 7 8 10 8 8 3 356 39 38 42 58 74 127 155 58 68 214 213 291 346 41 75 11 19 4 47 46 37 64 95 131 322 173 274 109 158 81 130 151 220 257 288
8 7 5 4 3 4 6 6 7 5 1 3 315 36 28 7 11 344 83 51 172 208 174 148 98 69 25 32 99 42 24 28 346 31 100 128 299 345 43 77 86 160 130 146 105 171 292
5 2 3 2 0 4 4 4 4 4 1 353 171 96 13 347 349 55 71 114 104 195 140 39 101 152 129 318 69 61 26 246 24 82 97 101 72 354 42 57 39 142 150 82 19 221 267
355 356 357 358 357 359 2 3 3 1 3 357 91 62 351 346 6 51 93 129 137 105 53 61 143 105 103 133 106 140 185 266 173 120 95 117 102 317 22 210 183 150 206 97 141 169 210
349 354 355 355 355 356 359 2 2 1 4 5 38 41 351 1 49 42 64 125 167 167 106 98 103 109 162 147 102 333 229 232 168 148 118 142 135 212 214 298 178 180 196 169 152 207 228
341 346 351 352 352 354 358 0 2 2 3 3 53 278 351 358 92 49 152 87 91 132 179 137 151 177 122 150 82 190 209 4 161 143 160 179 4 344 343 18 15 242 201 184 111 96 204
333 336 342 344 349 350 356 358 1 1 360 27 54 18 339 46 26 114 125 142 139 94 143 158 164 123 131 169 213 202 230 172 183 174 155 123 169 193 199 202 152 224 209 200 182 196 194
322 326 332 340 342 347 350 355 358 1 3 13 31 90 169 339 6 69 84 154 128 195 262 174 173 208 177 176 184 213 202 179 198 203 128 150 225 186 249 246 236 251 249 205 212 223 216
311 313 320 330 339 340 342 347 359 4 4 62 76 62 27 17 321 57 3 212 176 176 154 247 222 183 191 194 194 204 165 202 201 155 164 225 257 173 276 258 223 255 240 230 229 231 250
294 291 300 315 328 328 331 341 356 9 12 75 94 109 103 357 1 15 259 169 239 191 198 178 189 154 214 241 218 214 199 177 186 163 187 164 164 97 267 322 300 280 234 214 209 213 224
309 307 299 289 308 314 322 333 352 10 24 41 69 116 86 305 47 260 356 245 239 202 254 146 161 164 257 109 112 58 341 246 182 219 155 150 148 175 277 339 284 263 208 198 201 230 218
317 320 314 294 291 295 307 316 335 1 12 14 32 112 123 229 208 298 252 232 295 297 245 236 208 197 204 47 17 339 327 328 4 20 196 165 146 251 247 245 294 292 200 145 174 275 216
312 318 311 288 289 275 290 295 304 322 334 340 326 125 117 114 241 212 229 211 247 249 324 244 68 135 77 107 122 224 246 252 258 66 26 108 114 204 139 225 249 247 198 179 147 291 226
307 323 309 274 278 282 277 280 287 287 285 293 265 210 141 168 254 162 202 212 144 131 247 299 227 103 13 124 176 200 239 189 241 185 154 161 208 224 223 256 279 243 201 127 17 247 173
294 315 334 311 258 267 272 278 280 268 254 274 264 229 197 193 271 195 223 186 153 168 228 177 342 1 67 184 192 218 199 224 245 171 178 176 171 195 196 233 268 160 98 167 224 297 276
272 294 308 294 278 272 274 278 264 252 260 258 246 247 219 199 253 243 243 249 240 216 162 210 247 161 218 187 251 306 242 216 200 241 327 226 197 184 194 213 270 229 248 240 169 213 252